Location: The Saddle
(36.8333°N, 80.3417°W)
Time: 12:28:10
(UTC-04:00)

Vanguard 2 - Visible Passes

Search period start: 13 May 2025 00:00
Search period end: 23 May 2025 00:00
Orbit: 552 x 2901 km, 32.9° (Epoch: 12 May)

Date Brightness Start Highest point End Pass type
(mag) Time Alt. Az. Time Alt. Az. Time Alt. Az.
13 May 9.7 01:12:02 10° WSW 01:24:11 73° S 01:41:33 10° E visible
13 May 10.1 03:21:11 10° W 03:36:13 74° S 03:53:53 10° ESE visible
13 May 10.5 05:31:59 10° W 05:48:08 52° SSW 06:03:34 10° SE visible
13 May 10.1 21:13:33 10° S 21:18:46 18° SE 21:25:33 10° E visible
13 May 9.5 23:17:08 10° SW 23:26:23 52° SSE 23:40:53 10° E visible
14 May 9.8 01:24:34 10° WSW 01:36:48 76° S 01:54:15 10° E visible
14 May 10.1 03:33:50 10° W 03:48:51 70° SSW 04:06:21 10° ESE visible
14 May 10.6 05:44:50 10° W 06:00:26 45° SSW 06:15:26 10° SSE visible
14 May 9.8 21:24:36 10° S 21:30:43 23° SE 21:39:16 10° E visible
14 May 9.4 23:29:23 10° SW 23:38:45 59° SSE 23:53:39 10° E visible
15 May 9.8 01:37:07 10° W 01:49:26 76° S 02:06:57 10° E visible
15 May 10.2 03:46:29 10° W 04:01:24 65° SSW 04:18:45 10° ESE visible
15 May 9.6 21:36:08 10° SSW 21:42:44 30° SE 21:52:32 10° E visible
15 May 9.3 23:41:44 10° WSW 23:51:11 65° SSE 00:06:23 10° E visible
16 May 9.8 01:49:42 10° W 02:02:05 76° S 02:19:35 10° ESE visible
16 May 10.2 03:59:09 10° W 04:13:55 59° SSW 04:30:58 10° SE visible
16 May 9.3 21:47:57 10° SSW 21:54:50 37° SE 22:05:33 10° E visible
16 May 9.3 23:54:09 10° WSW 00:03:42 70° SSE 00:19:06 10° E visible
17 May 9.8 02:02:17 10° W 02:14:43 73° S 02:32:12 10° ESE visible
17 May 10.3 04:11:52 10° W 04:26:22 53° SSW 04:43:02 10° SE visible
17 May 9.2 22:00:00 10° SW 22:07:02 44° SSE 22:18:25 10° E visible
18 May 9.3 00:06:38 10° WSW 00:16:15 73° S 00:31:48 10° E visible
18 May 9.8 02:14:53 10° W 02:27:19 70° SSW 02:44:41 10° ESE visible
18 May 10.4 04:24:40 10° W 04:38:46 46° SSW 04:54:54 10° SE visible
18 May 9.0 22:12:10 10° SW 22:19:20 52° SSE 22:31:12 10° E visible
19 May 9.3 00:19:09 10° W 00:28:51 74° S 00:44:29 10° E visible
19 May 9.8 02:27:29 10° W 02:39:54 64° SSW 02:57:06 10° ESE visible
19 May 10.5 04:37:34 10° W 04:51:07 39° SSW 05:06:31 10° SSE visible
19 May 8.9 22:24:28 10° WSW 22:31:43 59° SSE 22:43:55 10° E visible
20 May 9.4 00:31:41 10° W 00:41:27 74° S 00:57:08 10° ESE visible
20 May 9.9 02:40:07 10° W 02:52:26 58° SSW 03:09:20 10° SE visible
20 May 10.7 04:50:42 10° W 05:03:27 32° SW 05:17:49 10° SSE visible
20 May 8.9 22:36:52 10° WSW 22:44:11 65° SSE 22:56:36 10° E visible
21 May 9.4 00:44:15 10° W 00:54:03 72° S 01:09:44 10° ESE visible
21 May 10.0 02:52:49 10° W 03:04:56 52° SSW 03:21:24 10° SE visible
21 May 10.8 05:04:07 10° W 05:15:45 26° SW 05:28:42 10° S visible
21 May 8.9 20:43:14 10° SW 20:48:30 35° SSE 20:56:34 10° E visible
21 May 8.8 22:49:18 10° WSW 22:56:42 69° S 23:09:18 10° E visible
22 May 9.4 00:56:48 10° W 01:06:38 68° S 01:22:15 10° ESE visible
22 May 10.1 03:05:34 10° W 03:17:25 45° SSW 03:33:15 10° SE visible
22 May 11.0 05:18:05 10° WSW 05:28:03 20° SW 05:38:59 10° S visible
22 May 8.7 20:55:20 10° SW 21:00:45 43° SSE 21:09:22 10° E visible
22 May 8.8 23:01:47 10° WSW 23:09:14 71° S 23:21:57 10° E visible
